Time,TemperatureF,DewpointF,PressureIn,WindDirection,WindDirectionDegrees,WindSpeedMPH,WindSpeedGustMPH,Humidity,HourlyPrecipIn,Conditions,Clouds,dailyrainin,SoftwareType,DateUTC
2013-09-08 00:01:00,65.2,51.4,29.80,North,5,4.0,12.0,61,0.00,,SCT120,0.00,VWS V14.00,2013-09-08 04:01:00,
2013-09-08 00:02:00,65.3,51.5,29.80,North,5,10.0,12.0,61,0.00,,SCT120,0.00,VWS V14.00,2013-09-08 04:02:00,
2013-09-08 00:04:00,65.4,52.1,29.80,North,5,4.0,13.0,62,0.00,,SCT120,0.00,VWS V14.00,2013-09-08 04:04:00,
2013-09-08 00:06:00,65.5,51.7,29.81,North,5,7.0,13.0,61,0.00,,SCT120,0.00,VWS V14.00,2013-09-08 04:06:00,
2013-09-08 00:07:00,65.6,50.9,29.81,North,5,7.0,13.0,59,0.00,,SCT120,0.00,VWS V14.00,2013-09-08 04:07:00,
2013-09-08 00:12:00,65.7,51.9,29.80,North,5,2.0,13.0,61,0.00,,CLR,0.00,VWS V14.00,2013-09-08 04:12:00,
2013-09-08 00:16:00,65.6,50.9,29.80,North,5,10.0,13.0,59,0.00,,CLR,0.00,VWS V14.00,2013-09-08 04:16:00,
2013-09-08 00:21:00,65.7,53.2,29.80,North,5,7.0,14.0,64,0.00,,CLR,0.00,VWS V14.00,2013-09-08 04:21:00,
2013-09-08 00:26:00,65.4,52.9,29.80,North,5,9.0,14.0,64,0.00,,CLR,0.00,VWS V14.00,2013-09-08 04:26:00,
2013-09-08 00:31:00,65.1,53.1,29.80,North,5,7.0,14.0,65,0.00,,CLR,0.00,VWS V14.00,2013-09-08 04:31:00,
2013-09-08 00:36:00,65.2,52.7,29.80,North,5,9.0,12.0,64,0.00,,CLR,0.00,VWS V14.00,2013-09-08 04:36:00,
2013-09-08 00:41:00,65.3,52.4,29.80,North,5,8.0,12.0,63,0.00,,CLR,0.00,VWS V14.00,2013-09-08 04:41:00,
2013-09-08 00:46:00,65.3,52.4,29.80,North,5,2.0,12.0,63,0.00,,CLR,0.00,VWS V14.00,2013-09-08 04:46:00,
2013-09-08 00:51:00,65.3,52.4,29.80,North,5,6.0,12.0,63,0.00,,CLR,0.00,VWS V14.00,2013-09-08 04:51:00,
2013-09-08 00:56:00,65.2,53.2,29.80,North,5,5.0,12.0,65,0.00,,CLR,0.00,VWS V14.00,2013-09-08 04:56:00,
2013-09-08 01:01:00,65.1,52.6,29.79,North,5,6.0,12.0,64,0.00,,CLR,0.00,VWS V14.00,2013-09-08 05:01:00,
2013-09-08 01:06:00,64.9,51.6,29.79,North,5,2.0,7.0,62,0.00,,CLR,0.00,VWS V14.00,2013-09-08 05:06:00,
2013-09-08 01:11:00,64.8,51.0,29.79,North,5,3.0,7.0,61,0.00,,CLR,0.00,VWS V14.00,2013-09-08 05:11:00,
2013-09-08 01:16:00,64.8,52.8,29.79,North,5,0.0,7.0,65,0.00,,CLR,0.00,VWS V14.00,2013-09-08 05:16:00,
2013-09-08 01:21:00,64.7,52.3,29.79,North,5,1.0,7.0,64,0.00,,CLR,0.00,VWS V14.00,2013-09-08 05:21:00,
2013-09-08 01:26:00,64.8,51.9,29.79,North,5,3.0,8.0,63,0.00,,CLR,0.00,VWS V14.00,2013-09-08 05:26:00,
2013-09-08 01:32:00,65.0,52.5,29.79,North,5,2.0,8.0,64,0.00,,CLR,0.00,VWS V14.00,2013-09-08 05:32:00,
2013-09-08 01:37:00,65.0,52.1,29.79,North,360,1.0,6.0,63,0.00,,CLR,0.00,VWS V14.00,2013-09-08 05:37:00,
2013-09-08 01:42:00,64.9,51.2,29.78,North,5,3.0,6.0,61,0.00,,CLR,0.00,VWS V14.00,2013-09-08 05:42:00,
2013-09-08 01:47:00,65.0,51.7,29.78,North,5,4.0,7.0,62,0.00,,CLR,0.00,VWS V14.00,2013-09-08 05:47:00,
2013-09-08 01:52:00,65.1,52.2,29.78,North,5,4.0,7.0,63,0.00,,CLR,0.00,VWS V14.00,2013-09-08 05:52:00,
2013-09-08 01:57:00,65.0,51.7,29.78,North,5,3.0,7.0,62,0.00,,CLR,0.00,VWS V14.00,2013-09-08 05:57:00,
2013-09-08 02:02:00,65.2,51.9,29.78,North,5,4.0,5.0,62,0.00,,CLR,0.00,VWS V14.00,2013-09-08 06:02:00,
2013-09-08 02:07:00,65.6,51.4,29.78,North,5,3.0,11.0,60,0.00,,CLR,0.00,VWS V14.00,2013-09-08 06:07:00,
2013-09-08 02:12:00,65.8,52.0,29.77,North,5,5.0,11.0,61,0.00,,BKN120,0.00,VWS V14.00,2013-09-08 06:12:00,
2013-09-08 02:17:00,65.9,51.2,29.77,North,5,4.0,11.0,59,0.00,,BKN120,0.00,VWS V14.00,2013-09-08 06:17:00,
2013-09-08 02:22:00,65.8,51.5,29.77,North,5,1.0,11.0,60,0.00,,BKN120,0.00,VWS V14.00,2013-09-08 06:22:00,
2013-09-08 02:27:00,65.7,51.5,29.76,North,5,0.0,11.0,60,0.00,,BKN120,0.00,VWS V14.00,2013-09-08 06:27:00,
2013-09-08 02:32:00,65.7,51.5,29.76,North,5,4.0,5.0,60,0.00,,BKN120,0.00,VWS V14.00,2013-09-08 06:32:00,
2013-09-08 02:37:00,65.6,51.8,29.76,North,5,3.0,5.0,61,0.00,,BKN120,0.00,VWS V14.00,2013-09-08 06:37:00,
2013-09-08 02:42:00,65.6,51.4,29.76,North,5,1.0,5.0,60,0.00,,BKN120,0.00,VWS V14.00,2013-09-08 06:42:00,
2013-09-08 02:47:00,65.3,51.1,29.76,North,5,3.0,5.0,60,0.00,,BKN120,0.00,VWS V14.00,2013-09-08 06:47:00,
2013-09-08 02:52:00,65.2,51.0,29.76,North,5,1.0,5.0,60,0.00,,BKN120,0.00,VWS V14.00,2013-09-08 06:52:00,
2013-09-08 02:57:00,65.1,51.8,29.76,North,5,0.0,5.0,62,0.00,,BKN120,0.00,VWS V14.00,2013-09-08 06:57:00,
2013-09-08 03:02:00,65.1,52.2,29.76,North,5,0.0,0.0,63,0.00,,BKN120,0.00,VWS V14.00,2013-09-08 07:02:00,
2013-09-08 03:07:00,64.7,52.3,29.76,North,5,0.0,0.0,64,0.00,,BKN120,0.00,VWS V14.00,2013-09-08 07:07:00,
2013-09-08 03:12:00,63.9,52.3,29.75,North,5,0.0,2.0,66,0.00,,BKN120,0.00,VWS V14.00,2013-09-08 07:12:00,
2013-09-08 03:17:00,63.1,52.0,29.75,North,5,0.0,2.0,67,0.00,,BKN120,0.00,VWS V14.00,2013-09-08 07:17:00,
2013-09-08 03:22:00,62.6,51.5,29.75,North,5,0.0,2.0,67,0.00,,BKN120,0.00,VWS V14.00,2013-09-08 07:22:00,
2013-09-08 03:27:00,62.4,51.7,29.75,North,5,0.0,2.0,68,0.00,,BKN120,0.00,VWS V14.00,2013-09-08 07:27:00,
2013-09-08 03:32:00,62.2,51.9,29.75,North,5,0.0,1.0,69,0.00,,BKN120,0.00,VWS V14.00,2013-09-08 07:32:00,
2013-09-08 03:38:00,61.8,52.7,29.75,North,5,0.0,1.0,72,0.00,,BKN120,0.00,VWS V14.00,2013-09-08 07:38:00,
2013-09-08 03:43:00,61.5,52.0,29.75,North,5,0.0,1.0,71,0.00,,BKN120,0.00,VWS V14.00,2013-09-08 07:43:00,
2013-09-08 03:48:00,61.2,51.7,29.75,North,5,0.0,1.0,71,0.00,,BKN120,0.00,VWS V14.00,2013-09-08 07:48:00,
2013-09-08 03:53:00,61.2,51.3,29.75,North,5,0.0,2.0,70,0.00,,BKN120,0.00,VWS V14.00,2013-09-08 07:53:00,
2013-09-08 03:58:00,61.8,52.3,29.75,North,5,0.0,2.0,71,0.00,,BKN120,0.00,VWS V14.00,2013-09-08 07:58:00,
2013-09-08 04:03:00,62.0,52.1,29.74,North,5,0.0,0.0,70,0.00,,BKN120,0.00,VWS V14.00,2013-09-08 08:03:00,
2013-09-08 04:08:00,61.7,51.8,29.74,North,5,0.0,0.0,70,0.00,,BKN120,0.00,VWS V14.00,2013-09-08 08:08:00,
2013-09-08 04:13:00,61.4,52.3,29.74,North,5,0.0,0.0,72,0.00,,BKN110,0.00,VWS V14.00,2013-09-08 08:13:00,
2013-09-08 04:18:00,61.3,52.6,29.74,North,5,0.0,0.0,73,0.00,,BKN110,0.00,VWS V14.00,2013-09-08 08:18:00,
2013-09-08 04:23:00,61.1,53.1,29.74,North,5,0.0,0.0,75,0.00,,BKN110,0.00,VWS V14.00,2013-09-08 08:23:00,
2013-09-08 04:28:00,61.0,53.0,29.74,North,5,0.0,0.0,75,0.00,,BKN110,0.00,VWS V14.00,2013-09-08 08:28:00,
2013-09-08 04:33:00,60.8,52.5,29.73,North,5,0.0,0.0,74,0.00,,BKN110,0.00,VWS V14.00,2013-09-08 08:33:00,
2013-09-08 04:38:00,60.8,51.7,29.73,North,5,0.0,2.0,72,0.00,,BKN110,0.00,VWS V14.00,2013-09-08 08:38:00,
2013-09-08 04:43:00,61.0,51.9,29.73,North,5,3.0,5.0,72,0.00,,BKN110,0.00,VWS V14.00,2013-09-08 08:43:00,
2013-09-08 04:48:00,61.5,53.5,29.74,North,9,4.0,6.0,75,0.00,,BKN110,0.00,VWS V14.00,2013-09-08 08:48:00,
2013-09-08 04:53:00,62.1,52.6,29.74,North,5,0.0,6.0,71,0.00,,BKN110,0.00,VWS V14.00,2013-09-08 08:53:00,
2013-09-08 04:58:00,62.1,53.3,29.74,North,5,0.0,6.0,73,0.00,,BKN110,0.00,VWS V14.00,2013-09-08 08:58:00,
2013-09-08 05:03:00,61.6,52.1,29.74,North,5,0.0,0.0,71,0.00,,BKN110,0.00,VWS V14.00,2013-09-08 09:03:00,
2013-09-08 05:08:00,61.3,53.0,29.74,North,5,0.0,0.0,74,0.00,,BKN110,0.00,VWS V14.00,2013-09-08 09:08:00,
2013-09-08 05:13:00,60.9,53.7,29.74,North,5,0.0,0.0,77,0.00,,RA,0.00,VWS V14.00,2013-09-08 09:13:00,
2013-09-08 05:18:00,60.4,54.5,29.74,North,5,0.0,0.0,81,0.00,,RA,0.00,VWS V14.00,2013-09-08 09:18:00,
2013-09-08 05:23:00,59.8,54.6,29.75,North,5,0.0,0.0,83,0.00,,RA,0.00,VWS V14.00,2013-09-08 09:23:00,
2013-09-08 05:28:00,59.2,54.7,29.75,North,5,0.0,0.0,85,0.00,,RA,0.00,VWS V14.00,2013-09-08 09:28:00,
2013-09-08 05:33:00,58.8,54.6,29.74,North,5,0.0,0.0,86,0.00,,RA,0.00,VWS V14.00,2013-09-08 09:33:00,
2013-09-08 05:38:00,58.5,55.0,29.74,North,5,0.0,0.0,88,0.00,,RA,0.00,VWS V14.00,2013-09-08 09:38:00,
2013-09-08 05:43:00,58.1,54.9,29.75,North,5,0.0,0.0,89,0.00,,RA,0.00,VWS V14.00,2013-09-08 09:43:00,
2013-09-08 05:48:00,57.7,54.5,29.74,North,5,0.0,0.0,89,0.00,,RA,0.00,VWS V14.00,2013-09-08 09:48:00,
2013-09-08 05:54:00,57.3,54.4,29.74,North,5,0.0,0.0,90,0.00,,RA,0.00,VWS V14.00,2013-09-08 09:54:00,
2013-09-08 05:59:00,56.8,53.9,29.73,North,5,0.0,1.0,90,0.00,,RA,0.00,VWS V14.00,2013-09-08 09:59:00,
2013-09-08 06:04:00,56.4,53.5,29.73,North,5,0.0,0.0,90,0.00,,RA,0.00,VWS V14.00,2013-09-08 10:04:00,
2013-09-08 06:09:00,56.2,53.6,29.73,North,5,0.0,0.0,91,0.00,,RA,0.00,VWS V14.00,2013-09-08 10:09:00,
2013-09-08 06:14:00,56.0,53.4,29.73,North,5,0.0,0.0,91,0.00,,SCT100,0.00,VWS V14.00,2013-09-08 10:14:00,
2013-09-08 06:19:00,55.8,53.5,29.74,North,5,0.0,0.0,92,0.00,,SCT100,0.00,VWS V14.00,2013-09-08 10:19:00,
2013-09-08 06:24:00,55.7,53.4,29.74,North,5,0.0,0.0,92,0.00,,SCT100,0.00,VWS V14.00,2013-09-08 10:24:00,
2013-09-08 06:29:00,55.7,53.4,29.74,North,5,1.0,1.0,92,0.00,,SCT100,0.00,VWS V14.00,2013-09-08 10:29:00,
2013-09-08 06:34:00,55.8,53.2,29.74,North,5,0.0,1.0,91,0.00,,SCT100,0.00,VWS V14.00,2013-09-08 10:34:00,
2013-09-08 06:39:00,56.0,53.4,29.74,North,5,0.0,1.0,91,0.00,,SCT100,0.00,VWS V14.00,2013-09-08 10:39:00,
2013-09-08 06:44:00,56.1,53.8,29.74,North,5,0.0,1.0,92,0.00,,SCT100,0.00,VWS V14.00,2013-09-08 10:44:00,
2013-09-08 06:49:00,56.1,53.8,29.73,North,5,0.0,1.0,92,0.00,,SCT100,0.00,VWS V14.00,2013-09-08 10:49:00,
2013-09-08 06:54:00,56.1,53.8,29.73,North,5,0.0,1.0,92,0.00,,SCT100,0.00,VWS V14.00,2013-09-08 10:54:00,
2013-09-08 06:59:00,56.2,53.9,29.74,North,5,0.0,2.0,92,0.00,,SCT100,0.00,VWS V14.00,2013-09-08 10:59:00,
2013-09-08 07:04:00,57.0,54.7,29.74,North,5,0.0,0.0,92,0.00,,SCT100,0.00,VWS V14.00,2013-09-08 11:04:00,
2013-09-08 07:09:00,57.1,54.5,29.74,North,5,0.0,0.0,91,0.00,,SCT100,0.00,VWS V14.00,2013-09-08 11:09:00,
2013-09-08 07:14:00,56.9,54.3,29.74,North,5,0.0,0.0,91,0.00,,BKN110,0.00,VWS V14.00,2013-09-08 11:14:00,
2013-09-08 07:19:00,56.8,54.5,29.73,North,5,0.0,0.0,92,0.00,,BKN110,0.00,VWS V14.00,2013-09-08 11:19:00,
2013-09-08 07:24:00,56.8,54.5,29.74,North,5,0.0,0.0,92,0.00,,BKN110,0.00,VWS V14.00,2013-09-08 11:24:00,
2013-09-08 07:29:00,56.9,54.9,29.74,North,5,0.0,0.0,93,0.00,,BKN110,0.00,VWS V14.00,2013-09-08 11:29:00,
2013-09-08 07:34:00,57.1,55.1,29.73,North,5,0.0,0.0,93,0.00,,BKN110,0.00,VWS V14.00,2013-09-08 11:34:00,
2013-09-08 07:39:00,57.3,55.6,29.73,North,5,0.0,0.0,94,0.00,,BKN110,0.00,VWS V14.00,2013-09-08 11:39:00,
2013-09-08 07:44:00,57.5,55.8,29.73,North,5,0.0,0.0,94,0.00,,BKN110,0.00,VWS V14.00,2013-09-08 11:44:00,
2013-09-08 07:49:00,57.7,55.7,29.73,North,5,0.0,0.0,93,0.00,,BKN110,0.00,VWS V14.00,2013-09-08 11:49:00,
2013-09-08 07:54:00,58.3,56.0,29.72,North,5,0.0,1.0,92,0.00,,BKN110,0.00,VWS V14.00,2013-09-08 11:54:00,
2013-09-08 07:59:00,58.7,55.8,29.72,North,5,0.0,1.0,90,0.00,,BKN110,0.00,VWS V14.00,2013-09-08 11:59:00,
2013-09-08 08:04:00,59.4,56.2,29.72,North,5,0.0,1.0,89,0.00,,BKN110,0.00,VWS V14.00,2013-09-08 12:04:00,
2013-09-08 08:09:00,60.3,56.4,29.73,North,5,3.0,5.0,87,0.00,,BKN110,0.00,VWS V14.00,2013-09-08 12:09:00,
2013-09-08 08:14:00,61.1,56.9,29.72,North,5,3.0,5.0,86,0.00,,OVC095,0.00,VWS V14.00,2013-09-08 12:14:00,
2013-09-08 08:19:00,62.0,56.8,29.72,North,5,3.0,6.0,83,0.00,,OVC095,0.00,VWS V14.00,2013-09-08 12:19:00,
2013-09-08 08:24:00,62.7,56.8,29.72,North,5,4.0,8.0,81,0.00,,OVC095,0.00,VWS V14.00,2013-09-08 12:24:00,
2013-09-08 08:29:00,63.4,57.1,29.72,North,5,4.0,8.0,80,0.00,,OVC095,0.00,VWS V14.00,2013-09-08 12:29:00,
2013-09-08 08:34:00,63.7,57.4,29.72,North,5,4.0,8.0,80,0.00,,OVC095,0.00,VWS V14.00,2013-09-08 12:34:00,
2013-09-08 08:39:00,63.8,56.8,29.73,North,5,3.0,8.0,78,0.00,,OVC095,0.00,VWS V14.00,2013-09-08 12:39:00,
2013-09-08 08:44:00,63.8,57.5,29.73,North,5,6.0,8.0,80,0.00,,OVC095,0.00,VWS V14.00,2013-09-08 12:44:00,
2013-09-08 08:49:00,63.6,56.6,29.73,North,5,6.0,8.0,78,0.00,,OVC095,0.00,VWS V14.00,2013-09-08 12:49:00,
2013-09-08 08:54:00,63.5,57.2,29.73,North,5,4.0,8.0,80,0.00,,OVC095,0.00,VWS V14.00,2013-09-08 12:54:00,
2013-09-08 08:59:00,63.5,57.2,29.73,North,5,0.0,8.0,80,0.00,,OVC095,0.00,VWS V14.00,2013-09-08 12:59:00,
2013-09-08 09:05:00,63.2,56.6,29.73,North,5,5.0,5.0,79,0.00,,OVC095,0.00,VWS V14.00,2013-09-08 13:05:00,
2013-09-08 09:10:00,63.2,57.6,29.73,North,5,3.0,6.0,82,0.00,,OVC095,0.00,VWS V14.00,2013-09-08 13:10:00,
2013-09-08 09:15:00,63.2,56.9,29.73,North,5,0.0,6.0,80,0.00,,OVC080,0.00,VWS V14.00,2013-09-08 13:15:00,
2013-09-08 09:20:00,63.3,56.7,29.73,North,5,0.0,6.0,79,0.00,,OVC080,0.00,VWS V14.00,2013-09-08 13:20:00,
2013-09-08 09:25:00,63.3,56.7,29.74,North,5,2.0,6.0,79,0.00,,OVC080,0.00,VWS V14.00,2013-09-08 13:25:00,
2013-09-08 09:30:00,63.5,57.6,29.73,North,5,2.0,6.0,81,0.00,,OVC080,0.00,VWS V14.00,2013-09-08 13:30:00,
2013-09-08 09:35:00,63.6,57.7,29.73,North,5,0.0,2.0,81,0.00,,OVC080,0.00,VWS V14.00,2013-09-08 13:35:00,
2013-09-08 09:40:00,63.6,57.3,29.73,North,5,4.0,5.0,80,0.00,,OVC080,0.00,VWS V14.00,2013-09-08 13:40:00,
2013-09-08 09:45:00,63.6,57.3,29.73,North,5,5.0,7.0,80,0.00,,OVC080,0.00,VWS V14.00,2013-09-08 13:45:00,
2013-09-08 09:50:00,63.8,57.9,29.74,North,5,8.0,8.0,81,0.00,,OVC080,0.00,VWS V14.00,2013-09-08 13:50:00,
2013-09-08 09:55:00,64.1,57.5,29.74,North,5,3.0,11.0,79,0.00,,OVC080,0.00,VWS V14.00,2013-09-08 13:55:00,
2013-09-08 10:00:00,64.4,57.0,29.73,North,5,5.0,11.0,77,0.00,,OVC080,0.00,VWS V14.00,2013-09-08 14:00:00,
2013-09-08 10:05:00,64.7,57.7,29.74,North,5,2.0,6.0,78,0.00,,OVC080,0.00,VWS V14.00,2013-09-08 14:05:00,
2013-09-08 10:10:00,63.9,55.8,29.75,North,5,3.0,13.0,75,0.00,,OVC080,0.00,VWS V14.00,2013-09-08 14:10:00,
2013-09-08 10:15:00,62.7,54.7,29.75,North,5,6.0,13.0,75,0.00,,OVC048,0.00,VWS V14.00,2013-09-08 14:15:00,
2013-09-08 10:20:00,62.2,55.6,29.75,North,5,4.0,13.0,79,0.00,,OVC048,0.00,VWS V14.00,2013-09-08 14:20:00,
2013-09-08 10:25:00,62.1,55.2,29.75,North,5,4.0,13.0,78,0.00,,OVC048,0.00,VWS V14.00,2013-09-08 14:25:00,
2013-09-08 10:30:00,62.2,54.5,29.75,North,5,1.0,13.0,76,0.00,,OVC048,0.00,VWS V14.00,2013-09-08 14:30:00,
2013-09-08 10:35:00,62.2,54.2,29.75,North,5,3.0,4.0,75,0.00,,OVC048,0.00,VWS V14.00,2013-09-08 14:35:00,
2013-09-08 10:40:00,62.4,53.6,29.75,North,5,3.0,7.0,73,0.00,,OVC048,0.00,VWS V14.00,2013-09-08 14:40:00,
2013-09-08 10:45:00,62.5,54.1,29.75,North,5,9.0,11.0,74,0.00,,BKN070,0.00,VWS V14.00,2013-09-08 14:45:00,
2013-09-08 10:50:00,62.9,52.2,29.75,North,5,8.0,13.0,68,0.00,,BKN070,0.00,VWS V14.00,2013-09-08 14:50:00,
2013-09-08 10:55:00,63.2,52.1,29.75,North,5,7.0,21.0,67,0.00,,BKN070,0.00,VWS V14.00,2013-09-08 14:55:00,
2013-09-08 11:00:00,63.7,53.3,29.75,North,5,4.0,21.0,69,0.00,,BKN070,0.00,VWS V14.00,2013-09-08 15:00:00,
2013-09-08 11:05:00,63.5,53.2,29.76,North,5,4.0,12.0,69,0.00,,BKN070,0.00,VWS V14.00,2013-09-08 15:05:00,
2013-09-08 11:10:00,63.2,52.9,29.76,North,5,5.0,12.0,69,0.00,,BKN070,0.00,VWS V14.00,2013-09-08 15:10:00,
2013-09-08 11:15:00,63.1,53.6,29.77,North,5,3.0,12.0,71,0.00,,BKN033,0.00,VWS V14.00,2013-09-08 15:15:00,
2013-09-08 11:20:00,63.1,52.0,29.77,North,5,8.0,13.0,67,0.00,,BKN033,0.00,VWS V14.00,2013-09-08 15:20:00,
2013-09-08 11:25:00,63.0,50.7,29.77,North,5,4.0,13.0,64,0.00,,BKN033,0.00,VWS V14.00,2013-09-08 15:25:00,
2013-09-08 11:30:00,62.9,50.5,29.77,North,5,7.0,13.0,64,0.00,,BKN033,0.00,VWS V14.00,2013-09-08 15:30:00,
2013-09-08 11:35:00,62.9,50.5,29.78,North,5,3.0,10.0,64,0.00,,BKN033,0.00,VWS V14.00,2013-09-08 15:35:00,
2013-09-08 11:40:00,63.0,51.1,29.78,North,5,9.0,10.0,65,0.00,,BKN033,0.00,VWS V14.00,2013-09-08 15:40:00,
2013-09-08 11:45:00,62.9,49.7,29.78,North,5,5.0,10.0,62,0.00,,BKN033,0.00,VWS V14.00,2013-09-08 15:45:00,
2013-09-08 11:50:00,62.9,48.4,29.78,North,5,6.0,10.0,59,0.00,,BKN033,0.00,VWS V14.00,2013-09-08 15:50:00,
2013-09-08 11:55:00,63.0,48.5,29.78,North,5,3.0,10.0,59,0.00,,BKN033,0.00,VWS V14.00,2013-09-08 15:55:00,
2013-09-08 12:00:00,63.1,49.9,29.78,North,5,4.0,10.0,62,0.00,,BKN033,0.00,VWS V14.00,2013-09-08 16:00:00,
2013-09-08 12:06:00,62.7,47.3,29.78,North,5,2.0,8.0,57,0.00,,BKN033,0.00,VWS V14.00,2013-09-08 16:06:00,
2013-09-08 12:11:00,62.6,48.5,29.78,North,5,0.0,11.0,60,0.00,,BKN055,0.00,VWS V14.00,2013-09-08 16:11:00,
2013-09-08 12:16:00,62.5,48.0,29.78,North,5,7.0,11.0,59,0.00,,BKN055,0.00,VWS V14.00,2013-09-08 16:16:00,
2013-09-08 12:21:00,62.8,48.3,29.78,North,5,0.0,11.0,59,0.00,,BKN055,0.00,VWS V14.00,2013-09-08 16:21:00,
2013-09-08 12:26:00,63.0,48.9,29.78,North,5,2.0,11.0,60,0.00,,BKN055,0.00,VWS V14.00,2013-09-08 16:26:00,
2013-09-08 12:31:00,63.0,47.5,29.78,North,5,9.0,13.0,57,0.00,,BKN055,0.00,VWS V14.00,2013-09-08 16:31:00,
2013-09-08 12:36:00,63.2,51.2,29.79,North,5,4.0,13.0,65,0.00,,BKN055,0.00,VWS V14.00,2013-09-08 16:36:00,
2013-09-08 12:41:00,63.4,49.3,29.79,North,5,9.0,13.0,60,0.00,,BKN055,0.00,VWS V14.00,2013-09-08 16:41:00,
2013-09-08 12:46:00,63.4,48.4,29.79,North,5,3.0,13.0,58,0.00,,BKN055,0.00,VWS V14.00,2013-09-08 16:46:00,
2013-09-08 12:51:00,63.1,48.1,29.80,North,5,6.0,13.0,58,0.00,,BKN055,0.00,VWS V14.00,2013-09-08 16:51:00,
2013-09-08 12:56:00,63.0,48.0,29.80,North,5,14.0,14.0,58,0.00,,BKN055,0.00,VWS V14.00,2013-09-08 16:56:00,
2013-09-08 13:01:00,62.8,46.9,29.81,North,5,12.0,14.0,56,0.00,,BKN055,0.00,VWS V14.00,2013-09-08 17:01:00,
2013-09-08 13:06:00,62.8,47.8,29.81,North,5,4.0,9.0,58,0.00,,BKN055,0.00,VWS V14.00,2013-09-08 17:06:00,
2013-09-08 13:11:00,62.9,47.9,29.82,North,5,7.0,9.0,58,0.00,,BKN060,0.00,VWS V14.00,2013-09-08 17:11:00,
2013-09-08 13:16:00,62.5,47.1,29.82,North,5,4.0,10.0,57,0.00,,BKN060,0.00,VWS V14.00,2013-09-08 17:16:00,
2013-09-08 13:21:00,62.3,48.7,29.82,North,5,4.0,12.0,61,0.00,,BKN060,0.00,VWS V14.00,2013-09-08 17:21:00,
2013-09-08 13:26:00,61.5,46.6,29.82,North,5,11.0,14.0,58,0.00,,BKN060,0.00,VWS V14.00,2013-09-08 17:26:00,
2013-09-08 13:31:00,60.8,46.4,29.82,North,5,3.0,14.0,59,0.00,,BKN060,0.00,VWS V14.00,2013-09-08 17:31:00,
2013-09-08 13:36:00,61.0,47.9,29.82,North,5,10.0,11.0,62,0.00,,BKN060,0.00,VWS V14.00,2013-09-08 17:36:00,
2013-09-08 13:41:00,61.6,47.6,29.82,North,5,4.0,11.0,60,0.00,,BKN060,0.00,VWS V14.00,2013-09-08 17:41:00,
2013-09-08 13:46:00,62.0,46.1,29.83,North,5,6.0,11.0,56,0.00,,BKN060,0.00,VWS V14.00,2013-09-08 17:46:00,
2013-09-08 13:51:00,61.8,46.9,29.83,North,5,3.0,18.0,58,0.00,,BKN060,0.00,VWS V14.00,2013-09-08 17:51:00,
2013-09-08 13:56:00,62.1,46.7,29.84,North,5,5.0,18.0,57,0.00,,BKN060,0.00,VWS V14.00,2013-09-08 17:56:00,
2013-09-08 14:01:00,61.9,47.0,29.84,North,5,3.0,18.0,58,0.00,,BKN060,0.00,VWS V14.00,2013-09-08 18:01:00,
2013-09-08 14:06:00,61.6,45.8,29.84,North,5,1.0,11.0,56,0.00,,BKN060,0.00,VWS V14.00,2013-09-08 18:06:00,
2013-09-08 14:11:00,60.9,46.5,29.84,North,5,5.0,12.0,59,0.00,,OVC050,0.00,VWS V14.00,2013-09-08 18:11:00,
2013-09-08 14:16:00,60.3,45.0,29.84,North,5,4.0,14.0,57,0.00,,OVC050,0.00,VWS V14.00,2013-09-08 18:16:00,
2013-09-08 14:21:00,60.5,48.7,29.84,North,5,4.0,14.0,65,0.00,,OVC050,0.00,VWS V14.00,2013-09-08 18:21:00,
2013-09-08 14:26:00,60.8,48.1,29.84,North,5,3.0,14.0,63,0.00,,OVC050,0.00,VWS V14.00,2013-09-08 18:26:00,
2013-09-08 14:31:00,60.7,46.8,29.84,North,5,15.0,15.0,60,0.00,,OVC050,0.00,VWS V14.00,2013-09-08 18:31:00,
2013-09-08 14:36:00,61.0,47.9,29.84,North,5,4.0,15.0,62,0.00,,OVC050,0.00,VWS V14.00,2013-09-08 18:36:00,
2013-09-08 14:41:00,61.7,48.1,29.85,North,5,5.0,15.0,61,0.00,,OVC050,0.00,VWS V14.00,2013-09-08 18:41:00,
2013-09-08 14:46:00,61.8,46.4,29.84,North,5,4.0,15.0,57,0.00,,OVC050,0.00,VWS V14.00,2013-09-08 18:46:00,
2013-09-08 14:52:00,61.9,47.9,29.85,North,5,5.0,15.0,60,0.00,,OVC050,0.00,VWS V14.00,2013-09-08 18:52:00,
2013-09-08 14:57:00,61.7,48.6,29.85,North,5,2.0,19.0,62,0.00,,OVC050,0.00,VWS V14.00,2013-09-08 18:57:00,
2013-09-08 15:02:00,61.8,48.2,29.85,North,5,5.0,19.0,61,0.00,,OVC050,0.00,VWS V14.00,2013-09-08 19:02:00,
2013-09-08 15:07:00,61.6,46.7,29.86,North,5,3.0,11.0,58,0.00,,CLR,0.00,VWS V14.00,2013-09-08 19:07:00,
2013-09-08 15:12:00,61.0,47.9,29.86,North,5,5.0,16.0,62,0.00,,CLR,0.00,VWS V14.00,2013-09-08 19:12:00,
2013-09-08 15:17:00,60.8,46.0,29.86,North,5,6.0,16.0,58,0.00,,CLR,0.00,VWS V14.00,2013-09-08 19:17:00,
2013-09-08 15:22:00,60.7,47.2,29.86,North,5,16.0,17.0,61,0.00,,CLR,0.00,VWS V14.00,2013-09-08 19:22:00,
2013-09-08 15:27:00,60.9,44.6,29.87,North,5,4.0,19.0,55,0.00,,CLR,0.00,VWS V14.00,2013-09-08 19:27:00,
2013-09-08 15:32:00,60.6,43.9,29.87,North,5,7.0,9.0,54,0.00,,CLR,0.00,VWS V14.00,2013-09-08 19:32:00,
2013-09-08 15:37:00,60.6,47.1,29.87,North,5,5.0,12.0,61,0.00,,CLR,0.00,VWS V14.00,2013-09-08 19:37:00,
2013-09-08 15:42:00,60.8,44.5,29.88,North,5,5.0,13.0,55,0.00,,CLR,0.00,VWS V14.00,2013-09-08 19:42:00,
2013-09-08 15:47:00,60.8,44.1,29.87,North,5,9.0,13.0,54,0.00,,CLR,0.00,VWS V14.00,2013-09-08 19:47:00,
2013-09-08 15:52:00,60.9,45.1,29.88,North,5,1.0,15.0,56,0.00,,CLR,0.00,VWS V14.00,2013-09-08 19:52:00,
2013-09-08 15:57:00,61.1,46.2,29.88,North,5,2.0,19.0,58,0.00,,CLR,0.00,VWS V14.00,2013-09-08 19:57:00,
2013-09-08 16:02:00,61.8,46.9,29.88,North,5,0.0,5.0,58,0.00,,CLR,0.00,VWS V14.00,2013-09-08 20:02:00,
2013-09-08 16:07:00,61.8,45.0,29.88,North,5,0.0,9.0,54,0.00,,CLR,0.00,VWS V14.00,2013-09-08 20:07:00,
2013-09-08 16:12:00,61.7,46.3,29.89,North,5,0.0,10.0,57,0.00,,CLR,0.00,VWS V14.00,2013-09-08 20:12:00,
2013-09-08 16:17:00,61.6,45.8,29.89,North,5,2.0,10.0,56,0.00,,CLR,0.00,VWS V14.00,2013-09-08 20:17:00,
2013-09-08 16:22:00,61.0,43.8,29.89,North,5,2.0,10.0,53,0.00,,CLR,0.00,VWS V14.00,2013-09-08 20:22:00,
2013-09-08 16:27:00,60.8,46.0,29.89,North,5,3.0,10.0,58,0.00,,CLR,0.00,VWS V14.00,2013-09-08 20:27:00,
2013-09-08 16:32:00,61.4,46.0,29.89,North,5,3.0,5.0,57,0.00,,CLR,0.00,VWS V14.00,2013-09-08 20:32:00,
2013-09-08 16:37:00,61.8,46.0,29.90,North,5,6.0,9.0,56,0.00,,CLR,0.00,VWS V14.00,2013-09-08 20:37:00,
2013-09-08 16:42:00,61.4,43.1,29.90,North,5,7.0,19.0,51,0.00,,CLR,0.00,VWS V14.00,2013-09-08 20:42:00,
2013-09-08 16:47:00,61.5,44.2,29.90,North,5,10.0,19.0,53,0.00,,CLR,0.00,VWS V14.00,2013-09-08 20:47:00,
2013-09-08 16:52:00,61.5,43.2,29.90,North,5,5.0,19.0,51,0.00,,CLR,0.00,VWS V14.00,2013-09-08 20:52:00,
2013-09-08 16:57:00,61.6,44.3,29.90,North,5,4.0,19.0,53,0.00,,CLR,0.00,VWS V14.00,2013-09-08 20:57:00,
2013-09-08 17:02:00,61.8,45.0,29.90,North,5,4.0,6.0,54,0.00,,BKN060,0.00,VWS V14.00,2013-09-08 21:02:00,
2013-09-08 17:07:00,61.7,44.9,29.91,North,5,0.0,7.0,54,0.00,,BKN060,0.00,VWS V14.00,2013-09-08 21:07:00,
2013-09-08 17:13:00,61.4,43.6,29.90,North,5,4.0,8.0,52,0.00,,BKN060,0.00,VWS V14.00,2013-09-08 21:13:00,
2013-09-08 17:18:00,61.0,44.2,29.91,North,5,6.0,8.0,54,0.00,,BKN060,0.00,VWS V14.00,2013-09-08 21:18:00,
2013-09-08 17:23:00,60.8,45.5,29.91,North,5,8.0,10.0,57,0.00,,BKN060,0.00,VWS V14.00,2013-09-08 21:23:00,
2013-09-08 17:28:00,60.7,44.0,29.91,North,5,0.0,10.0,54,0.00,,BKN060,0.00,VWS V14.00,2013-09-08 21:28:00,
2013-09-08 17:33:00,60.5,43.8,29.91,North,5,8.0,9.0,54,0.00,,BKN060,0.00,VWS V14.00,2013-09-08 21:33:00,
2013-09-08 17:38:00,60.7,43.0,29.92,North,5,8.0,12.0,52,0.00,,BKN060,0.00,VWS V14.00,2013-09-08 21:38:00,
2013-09-08 17:43:00,60.6,43.9,29.92,North,5,4.0,12.0,54,0.00,,BKN060,0.00,VWS V14.00,2013-09-08 21:43:00,
2013-09-08 17:48:00,60.8,44.5,29.92,North,5,7.0,12.0,55,0.00,,BKN060,0.00,VWS V14.00,2013-09-08 21:48:00,
2013-09-08 17:53:00,60.7,43.0,29.92,North,5,4.0,12.0,52,0.00,,BKN060,0.00,VWS V14.00,2013-09-08 21:53:00,
2013-09-08 17:58:00,60.8,44.5,29.92,North,5,1.0,12.0,55,0.00,,BKN060,0.00,VWS V14.00,2013-09-08 21:58:00,
2013-09-08 18:03:00,60.9,43.7,29.92,North,5,0.0,9.0,53,0.00,,BKN060,0.00,VWS V14.00,2013-09-08 22:03:00,
2013-09-08 18:08:00,61.1,45.8,29.93,North,5,0.0,9.0,57,0.00,,BKN060,0.00,VWS V14.00,2013-09-08 22:08:00,
2013-09-08 18:13:00,61.2,45.4,29.93,North,5,1.0,9.0,56,0.00,,BKN070,0.00,VWS V14.00,2013-09-08 22:13:00,
2013-09-08 18:18:00,61.3,46.4,29.93,North,5,0.0,9.0,58,0.00,,BKN070,0.00,VWS V14.00,2013-09-08 22:18:00,
2013-09-08 18:23:00,61.4,47.0,29.93,North,5,0.0,9.0,59,0.00,,BKN070,0.00,VWS V14.00,2013-09-08 22:23:00,
2013-09-08 18:28:00,61.0,47.9,29.93,North,5,8.0,9.0,62,0.00,,BKN070,0.00,VWS V14.00,2013-09-08 22:28:00,
2013-09-08 18:33:00,60.2,43.5,29.93,North,5,9.0,9.0,54,0.00,,BKN070,0.00,VWS V14.00,2013-09-08 22:33:00,
2013-09-08 18:38:00,59.4,43.2,29.93,North,5,3.0,13.0,55,0.00,,BKN070,0.00,VWS V14.00,2013-09-08 22:38:00,
2013-09-08 18:43:00,59.1,44.8,29.94,North,5,1.0,13.0,59,0.00,,BKN070,0.00,VWS V14.00,2013-09-08 22:43:00,
2013-09-08 18:48:00,58.9,44.6,29.94,North,5,4.0,13.0,59,0.00,,BKN070,0.00,VWS V14.00,2013-09-08 22:48:00,
2013-09-08 18:53:00,58.7,43.5,29.95,North,5,0.0,13.0,57,0.00,,BKN070,0.00,VWS V14.00,2013-09-08 22:53:00,
2013-09-08 18:58:00,58.6,43.9,29.95,North,5,3.0,13.0,58,0.00,,BKN070,0.00,VWS V14.00,2013-09-08 22:58:00,
2013-09-08 19:03:00,58.5,42.4,29.96,North,5,3.0,3.0,55,0.00,,BKN070,0.00,VWS V14.00,2013-09-08 23:03:00,
2013-09-08 19:08:00,58.0,42.9,29.96,North,5,3.0,9.0,57,0.00,,BKN070,0.00,VWS V14.00,2013-09-08 23:08:00,
2013-09-08 19:13:00,57.9,40.9,29.96,North,5,4.0,9.0,53,0.00,,SCT065,0.00,VWS V14.00,2013-09-08 23:13:00,
2013-09-08 19:18:00,57.6,43.8,29.97,North,5,0.0,9.0,60,0.00,,SCT065,0.00,VWS V14.00,2013-09-08 23:18:00,
2013-09-08 19:23:00,57.2,42.6,29.97,North,5,0.0,9.0,58,0.00,,SCT065,0.00,VWS V14.00,2013-09-08 23:23:00,
2013-09-08 19:29:00,57.1,43.4,29.97,North,5,0.0,9.0,60,0.00,,SCT065,0.00,VWS V14.00,2013-09-08 23:29:00,
2013-09-08 19:34:00,56.9,42.3,29.98,North,5,1.0,4.0,58,0.00,,SCT065,0.00,VWS V14.00,2013-09-08 23:34:00,
2013-09-08 19:39:00,56.8,41.8,29.98,North,5,1.0,5.0,57,0.00,,SCT065,0.00,VWS V14.00,2013-09-08 23:39:00,
2013-09-08 19:44:00,56.8,43.5,29.98,North,5,0.0,5.0,61,0.00,,SCT065,0.00,VWS V14.00,2013-09-08 23:44:00,
2013-09-08 19:49:00,56.9,43.6,29.99,North,5,2.0,5.0,61,0.00,,SCT065,0.00,VWS V14.00,2013-09-08 23:49:00,
2013-09-08 19:54:00,57.1,44.2,29.99,North,5,4.0,6.0,62,0.00,,SCT065,0.00,VWS V14.00,2013-09-08 23:54:00,
2013-09-08 19:59:00,57.1,43.4,30.00,North,5,0.0,7.0,60,0.00,,SCT065,0.00,VWS V14.00,2013-09-08 23:59:00,
2013-09-08 20:04:00,57.0,42.4,30.00,North,5,0.0,3.0,58,0.00,,SCT065,0.00,VWS V14.00,2013-09-09 00:04:00,
2013-09-08 20:09:00,57.1,41.6,30.00,North,5,0.0,6.0,56,0.00,,FEW065,0.00,VWS V14.00,2013-09-09 00:09:00,
2013-09-08 20:14:00,56.9,42.7,30.00,North,5,4.0,6.0,59,0.00,,FEW065,0.00,VWS V14.00,2013-09-09 00:14:00,
2013-09-08 20:19:00,56.9,43.6,30.01,North,5,0.0,6.0,61,0.00,,FEW065,0.00,VWS V14.00,2013-09-09 00:19:00,
2013-09-08 20:24:00,56.2,43.0,30.01,North,5,0.0,6.0,61,0.00,,FEW065,0.00,VWS V14.00,2013-09-09 00:24:00,
2013-09-08 20:29:00,55.9,42.7,30.01,North,5,7.0,7.0,61,0.00,,FEW065,0.00,VWS V14.00,2013-09-09 00:29:00,
2013-09-08 20:34:00,56.7,43.4,30.02,North,5,8.0,11.0,61,0.00,,FEW065,0.00,VWS V14.00,2013-09-09 00:34:00,
2013-09-08 20:39:00,57.1,44.6,30.02,North,5,2.0,11.0,63,0.00,,FEW065,0.00,VWS V14.00,2013-09-09 00:39:00,
2013-09-08 20:44:00,56.8,41.3,30.02,North,5,5.0,11.0,56,0.00,,FEW065,0.00,VWS V14.00,2013-09-09 00:44:00,
2013-09-08 20:49:00,56.4,42.3,30.02,North,5,4.0,11.0,59,0.00,,FEW065,0.00,VWS V14.00,2013-09-09 00:49:00,
2013-09-08 20:54:00,56.1,43.3,30.02,North,5,6.0,11.0,62,0.00,,FEW065,0.00,VWS V14.00,2013-09-09 00:54:00,
2013-09-08 20:59:00,56.0,41.5,30.03,North,5,7.0,11.0,58,0.00,,FEW065,0.00,VWS V14.00,2013-09-09 00:59:00,
2013-09-08 21:04:00,56.0,42.3,30.03,North,5,1.0,7.0,60,0.00,,FEW065,0.00,VWS V14.00,2013-09-09 01:04:00,
2013-09-08 21:09:00,55.8,43.0,30.03,North,5,0.0,7.0,62,0.00,,CLR,0.00,VWS V14.00,2013-09-09 01:09:00,
2013-09-08 21:14:00,55.6,42.0,30.03,North,5,4.0,7.0,60,0.00,,CLR,0.00,VWS V14.00,2013-09-09 01:14:00,
2013-09-08 21:19:00,55.6,42.8,30.03,North,5,2.0,7.0,62,0.00,,CLR,0.00,VWS V14.00,2013-09-09 01:19:00,
2013-09-08 21:24:00,55.4,42.2,30.03,North,5,1.0,7.0,61,0.00,,CLR,0.00,VWS V14.00,2013-09-09 01:24:00,
2013-09-08 21:29:00,55.3,42.5,30.04,North,5,0.0,7.0,62,0.00,,CLR,0.00,VWS V14.00,2013-09-09 01:29:00,
2013-09-08 21:34:00,55.0,43.5,30.04,North,5,0.0,1.0,65,0.00,,CLR,0.00,VWS V14.00,2013-09-09 01:34:00,
2013-09-08 21:40:00,54.2,42.3,30.05,North,5,0.0,1.0,64,0.00,,CLR,0.00,VWS V14.00,2013-09-09 01:40:00,
2013-09-08 21:45:00,53.7,41.8,30.05,North,5,0.0,1.0,64,0.00,,CLR,0.00,VWS V14.00,2013-09-09 01:45:00,
2013-09-08 21:50:00,53.3,42.2,30.05,North,5,0.0,1.0,66,0.00,,CLR,0.00,VWS V14.00,2013-09-09 01:50:00,
2013-09-08 21:55:00,52.9,41.5,30.05,North,5,0.0,1.0,65,0.00,,CLR,0.00,VWS V14.00,2013-09-09 01:55:00,
2013-09-08 22:00:00,53.0,41.6,30.05,North,5,2.0,5.0,65,0.00,,CLR,0.00,VWS V14.00,2013-09-09 02:00:00,
2013-09-08 22:05:00,54.6,43.9,30.05,North,5,5.0,6.0,67,0.00,,CLR,0.00,VWS V14.00,2013-09-09 02:05:00,
2013-09-08 22:10:00,55.3,42.1,30.05,North,5,8.0,10.0,61,0.00,,CLR,0.00,VWS V14.00,2013-09-09 02:10:00,
2013-09-08 22:15:00,55.5,41.9,30.05,North,5,8.0,10.0,60,0.00,,CLR,0.00,VWS V14.00,2013-09-09 02:15:00,
2013-09-08 22:20:00,55.8,42.6,30.05,North,5,6.0,13.0,61,0.00,,CLR,0.00,VWS V14.00,2013-09-09 02:20:00,
2013-09-08 22:25:00,55.6,41.1,30.06,North,5,5.0,13.0,58,0.00,,CLR,0.00,VWS V14.00,2013-09-09 02:25:00,
2013-09-08 22:30:00,55.3,42.1,30.06,North,5,4.0,13.0,61,0.00,,CLR,0.00,VWS V14.00,2013-09-09 02:30:00,
2013-09-08 22:35:00,55.2,39.8,30.07,North,5,1.0,4.0,56,0.00,,CLR,0.00,VWS V14.00,2013-09-09 02:35:00,
2013-09-08 22:40:00,55.1,42.3,30.07,North,5,0.0,4.0,62,0.00,,CLR,0.00,VWS V14.00,2013-09-09 02:40:00,
2013-09-08 22:45:00,54.6,41.9,30.07,North,5,0.0,4.0,62,0.00,,CLR,0.00,VWS V14.00,2013-09-09 02:45:00,
2013-09-08 22:50:00,54.0,40.9,30.07,North,5,2.0,4.0,61,0.00,,CLR,0.00,VWS V14.00,2013-09-09 02:50:00,
2013-09-08 22:55:00,54.4,40.8,30.07,North,5,0.0,4.0,60,0.00,,CLR,0.00,VWS V14.00,2013-09-09 02:55:00,
2013-09-08 23:00:00,54.7,41.5,30.07,North,5,0.0,4.0,61,0.00,,CLR,0.00,VWS V14.00,2013-09-09 03:00:00,
2013-09-08 23:05:00,54.9,40.9,30.07,North,5,2.0,3.0,59,0.00,,CLR,0.00,VWS V14.00,2013-09-09 03:05:00,
2013-09-08 23:10:00,55.1,41.9,30.07,North,5,0.0,3.0,61,0.00,,CLR,0.00,VWS V14.00,2013-09-09 03:10:00,
2013-09-08 23:15:00,55.1,39.2,30.06,North,5,0.0,4.0,55,0.00,,CLR,0.00,VWS V14.00,2013-09-09 03:15:00,
2013-09-08 23:20:00,55.1,38.8,30.07,North,5,0.0,4.0,54,0.00,,CLR,0.00,VWS V14.00,2013-09-09 03:20:00,
2013-09-08 23:25:00,55.2,41.6,30.07,North,5,3.0,4.0,60,0.00,,CLR,0.00,VWS V14.00,2013-09-09 03:25:00,
2013-09-08 23:30:00,54.6,41.9,30.07,North,5,3.0,5.0,62,0.00,,CLR,0.00,VWS V14.00,2013-09-09 03:30:00,
2013-09-08 23:35:00,54.0,44.1,30.07,North,5,3.0,6.0,69,0.00,,CLR,0.00,VWS V14.00,2013-09-09 03:35:00,
2013-09-08 23:40:00,53.6,43.3,30.06,North,5,4.0,6.0,68,0.00,,CLR,0.00,VWS V14.00,2013-09-09 03:40:00,
2013-09-08 23:46:00,53.7,44.2,30.07,North,5,3.0,6.0,70,0.00,,CLR,0.00,VWS V14.00,2013-09-09 03:46:00,
2013-09-08 23:51:00,53.5,44.3,30.07,North,5,6.0,6.0,71,0.00,,CLR,0.00,VWS V14.00,2013-09-09 03:51:00,
2013-09-08 23:56:00,53.1,43.2,30.07,North,5,3.0,7.0,69,0.00,,CLR,0.00,VWS V14.00,2013-09-09 03:56:00,